Starlink 30812

operational
NORAD ID: 58168 Int'l Des: 2023-166 Owner: SPXS Country: US Constellation: starlink
LEOCIRCULAR

Starlink 30812について

説明を読み込み中...

リアルタイム位置

3D地球を読み込み中...

次回通過

高度履歴

Altitude vs Time

uPlot chart will show altitude changes over time

軌道要素

1 58168U 23166U 25259.17429802 .00008399 00000-0 29570-3 0 9997
2 58168 53.1599 309.9818 0000994 103.3552 256.7559 15.30164448106317
Epoch: Sep 16, 2025 • Age: 9 hours

現在のステータス

高度 475.1 km
速度 7.63 km/s
衛星直下点 15.44°N, 70.06°W
打ち上げ日 Oct 29, 2023
運用期間 1.8 years
タイプ internet

技術仕様

分類 Payload
質量 730.00 kg
乾燥質量 700.00 kg
総質量 730.00 kg
長さ 0.30 m
直径 4.10 m
スパン 29.00 m
形状 Box + pan
製造者 SPXS
バスタイプ Starlink V2M
フェーズステータス In Orbit
所有者/国 SPXS/US

大規模コンステレーション

Loading constellations...